Tracking 19846 objects as of 20-Sep-2019
HD Live streaming from Space Station
objects crossing your sky now

SYNCOM 3

Track SYNCOM 3 now!
SYNCOM 3 is classified as:


NORAD ID: 858
Int'l Code: 1964-047A
Perigee: 35,817.9 km
Apogee: 35,839.9 km
Inclination: 1.1 °
Period: 1,437.9 minutes
Semi major axis: 42199 km
RCS: 6.3096 m2 (large)
Launch date: August 19, 1964
Source: United States (US)
Launch site: AIR FORCE EASTERN TEST RANGE (AFETR)
aabbcc
Your satellite tracking list
Your tracking list is empty




NASA's NSSDC Master Catalog

Two Line Element Set (TLE):
1   858U 64047A   19261.71914067 -.00000200  00000-0  00000+0 0  9998
2   858   1.1268  67.7998 0002602 159.8079 117.8968  1.00146457164038
Source of the keplerian elements: AFSPC